Terug naar catalogus

CZ-6A DEB

ActiefSSO
NORAD 56683·DEBRIS·🇨🇳 China

Gelanceerd Nov 11, 2022 vanaf Taiyuan Satellite Launch Center

Loading…

Volgende Passages (komende 24 uur)

TLE

VersSource: Space-Track

Epoch: Sep 13, 2026, 05:08 UTC

1 56683U 22151AHK 26256.21444397  .00000158  00000-0  11297-3 0  9991
2 56683  98.8455 254.0090 0045222  74.3475 286.2679 14.09913699172364

Volg CZ-6A DEB in realtime met AllMySat

Download on the App Store